Find Starlink 3599

NORAD ID: 51814 Int'l Des: 2022-017 Owner: SPXS Country: US Constellation: starlink operational
LEOCIRCULAR

リアルタイム位置

3D地球を読み込み中...

Starlink 3599について

説明を読み込み中...

次回通過

Passes for default location (London). Set your location on the main map for personalized predictions.

高度履歴

Loading altitude history...

軌道要素

1 51814U 22017AY 26106.84965233 .00000440 00000-0 45749-4 0 9997
2 51814 53.2160 157.8149 0001208 58.7699 301.3412 15.08847842229844
Epoch: Apr 16, 2026 • Age: 13 hours

現在のステータス

高度 542.5 km
速度 7.60 km/s
衛星直下点 39.84°N, 151.93°W
打ち上げ日 Feb 25, 2022
運用期間 4.1 years
タイプ internet

技術仕様

分類 Payload
質量 297.00 kg
乾燥質量 275.00 kg
総質量 297.00 kg
長さ 0.20 m
直径 2.80 m
スパン 9.00 m
形状 Box + pan
製造者 SPXS
バスタイプ Starlink
フェーズステータス In Orbit
所有者/国 SPXS/US

Most Searched